Regional Weather Roundup
Issued by NWS Goodland, KS

Home | Current Version | Previous Version | Graphics & Text | Print | Product List | Glossary On
Versions: 1 2 3 4 5 6 7 8 9 10 11 12 13 14 15 16 17 18 19 20 21 22 23 24 25 26 27 28 29 30 31 32 33 34 35 36 37 38 39 40 41 42 43 44 45 46 47 48 49 50
000
ASUS43 KGLD 230159
RWRGLD

GOODLAND FORECAST AREA HOURLY WEATHER ROUNDUP
NATIONAL WEATHER SERVICE GOODLAND KS
700 PM MST SAT NOV 22 2014

...OFFICIAL OBSERVATIONS...

CITY           SKY/WX    TMP DP  RH WIND       PRES   REMARKS
GOODLAND KS    MOCLDY    48  24  39 S12       29.54S
HILL CITY KS   PTCLDY    53  44  71 S14G23    29.55F
IMPERIAL NEB   CLOUDY    43  15  32 NW3       29.51F
MCCOOK NEB     PTCLDY    50  18  28 S9        29.51S
AKRON CO       CLOUDY    46  17  31 N10       29.56F
BURLINGTON CO  CLOUDY    44  19  36 S8        29.55S
LIMON CO       CLOUDY    35  16  45 W5        29.56F
$$

...UNOFFICIAL OBSERVATIONS...

CITY           SKY/WX    TMP DP  RH WIND       PRES   REMARKS
COLBY KS       CLEAR     48  28  46 S7        29.54S
GOVE KS          N/A     43  32  65 MISG        N/A
NORTON KS      CLEAR     48  25  40 SE8       29.53S
SHARON SPRINGS   N/A     41  27  56 N6          N/A
TRIBUNE KS     PTCLDY    46  32  57 CALM      29.54F
TRENTON NEB      N/A     50  32  50 SW8         N/A
YUMA CO          N/A     47  12  24 CALM        N/A
$$



USA.gov is the U.S. government's official web portal to all federal, state and local government web resources and services.